TimePDT,TemperatureF,Dew PointF,Humidity,Sea Level PressureIn,VisibilityMPH,Wind Direction,Wind SpeedMPH,Gust SpeedMPH,PrecipitationIn,Events,Conditions,WindDirDegrees,DateUTC
12:53 AM,37.9,25.0,60,29.91,10.0,SW,11.5,-,N/A,,Clear,220,2013-03-17 07:53:00
1:53 AM,39.0,23.0,53,29.92,10.0,West,12.7,16.1,N/A,,Clear,270,2013-03-17 08:53:00
2:53 AM,36.0,21.9,57,29.94,10.0,West,5.8,-,N/A,,Clear,260,2013-03-17 09:53:00
3:53 AM,41.0,24.1,51,29.96,10.0,West,13.8,-,N/A,,Clear,270,2013-03-17 10:53:00
4:53 AM,39.0,24.1,55,29.98,10.0,West,8.1,-,N/A,,Clear,260,2013-03-17 11:53:00
5:53 AM,39.9,24.1,53,30.00,10.0,WNW,12.7,-,N/A,,Partly Cloudy,290,2013-03-17 12:53:00
6:53 AM,39.0,24.1,55,30.01,10.0,WNW,13.8,-,N/A,,Clear,300,2013-03-17 13:53:00
7:53 AM,41.0,21.9,47,30.04,10.0,West,5.8,-,N/A,,Partly Cloudy,260,2013-03-17 14:53:00
8:53 AM,45.0,21.0,39,30.05,10.0,West,17.3,28.8,N/A,,Scattered Clouds,260,2013-03-17 15:53:00
9:53 AM,48.0,19.0,32,30.06,10.0,West,15.0,21.9,N/A,,Scattered Clouds,260,2013-03-17 16:53:00
10:53 AM,50.0,19.0,29,30.06,10.0,West,23.0,35.7,N/A,,Mostly Cloudy,280,2013-03-17 17:53:00
11:53 AM,51.1,19.0,28,30.08,10.0,West,18.4,29.9,N/A,,Scattered Clouds,270,2013-03-17 18:53:00
12:53 PM,51.1,18.0,27,30.10,10.0,West,21.9,29.9,N/A,,Scattered Clouds,280,2013-03-17 19:53:00
1:53 PM,52.0,19.0,27,30.09,10.0,West,20.7,29.9,N/A,,Scattered Clouds,280,2013-03-17 20:53:00
2:53 PM,52.0,15.1,23,30.08,10.0,West,27.6,38.0,N/A,,Scattered Clouds,280,2013-03-17 21:53:00
3:53 PM,51.1,17.1,26,30.08,10.0,West,24.2,29.9,N/A,,Scattered Clouds,280,2013-03-17 22:53:00
4:53 PM,50.0,19.0,29,30.09,10.0,West,17.3,25.3,N/A,,Scattered Clouds,280,2013-03-17 23:53:00
5:53 PM,50.0,21.0,32,30.09,10.0,West,23.0,27.6,N/A,,Mostly Cloudy,270,2013-03-18 00:53:00
6:53 PM,46.0,19.9,35,30.08,10.0,West,25.3,31.1,N/A,,Partly Cloudy,270,2013-03-18 01:53:00
7:53 PM,44.1,19.9,38,30.08,10.0,West,13.8,-,N/A,,Clear,270,2013-03-18 02:53:00
8:53 PM,41.0,19.9,43,30.10,10.0,SW,6.9,-,N/A,,Clear,230,2013-03-18 03:53:00
9:53 PM,39.9,21.0,47,30.11,10.0,Variable,3.5,-,N/A,,Clear,0,2013-03-18 04:53:00
10:53 PM,39.0,21.0,49,30.11,10.0,West,3.5,-,N/A,,Clear,270,2013-03-18 05:53:00
11:53 PM,37.9,19.9,48,30.12,10.0,SW,4.6,-,N/A,,Clear,230,2013-03-18 06:53:00